| time (UTC) | temp F | wind direction | speed MPH | gust MPH | rain 1hr in | rain 24hr in | rain mn in | humidity % | barometer mb |
| 20260506051016 | 50 | 216 | 0.0 | 0.0 | 0.00 | 0.00 | 0.00 | 100 | 1015.4 |
| 20260506045016 | 51 | 216 | 0.0 | 0.0 | 0.00 | 0.00 | 0.00 | 99 | 1015.4 |
| 20260506044016 | 52 | 216 | 0.0 | 0.0 | 0.00 | 0.00 | 0.00 | 98 | 1015.3 |
| 20260506043036 | 52 | 216 | 0.0 | 0.0 | 0.00 | 0.00 | 0.00 | 96 | 1015.2 |
| 20260506042016 | 53 | 216 | 0.0 | 0.0 | 0.00 | 0.00 | 0.00 | 95 | 1014.9 |
| 20260506041036 | 53 | 216 | 0.0 | 0.0 | 0.00 | 0.00 | 0.00 | 94 | 1014.6 |
| 20260506040036 | 54 | 216 | 0.0 | 0.0 | 0.00 | 0.00 | 0.00 | 93 | 1014.6 |
| 20260506035016 | 55 | 216 | 0.0 | 0.0 | 0.00 | 0.00 | 0.00 | 91 | 1014.4 |
| 20260506034016 | 55 | 216 | 0.0 | 0.0 | 0.00 | 0.00 | 0.00 | 90 | 1014.3 |
| 20260506033016 | 56 | 216 | 0.0 | 0.0 | 0.00 | 0.00 | 0.00 | 89 | 1014.3 |
| 20260506032036 | 57 | 216 | 0.0 | 0.0 | 0.00 | 0.00 | 0.00 | 89 | 1014.3 |
| 20260506031036 | 58 | 216 | 0.0 | 0.0 | 0.00 | 0.00 | 0.00 | 88 | 1014.3 |
| 20260506030112 | 58 | 216 | 0.0 | 0.0 | 0.00 | 0.00 | 0.00 | 87 | 1014.3 |
| 20260506025016 | 58 | 216 | 0.0 | 0.0 | 0.00 | 0.00 | 0.00 | 87 | 1014.4 |
| 20260506024015 | 59 | 225 | 0.0 | 1.0 | 0.00 | 0.00 | 0.00 | 87 | 1014.4 |
| 20260506023035 | 59 | 225 | 0.0 | 2.0 | 0.00 | 0.00 | 0.00 | 86 | 1014.4 |
| 20260506022016 | 59 | 225 | 0.0 | 2.0 | 0.00 | 0.00 | 0.00 | 86 | 1014.4 |
| 20260506021016 | 60 | 225 | 0.0 | 2.0 | 0.00 | 0.00 | 0.00 | 85 | 1014.3 |
| 20260506020016 | 60 | 225 | 0.0 | 3.0 | 0.00 | 0.00 | 0.00 | 85 | 1014.3 |
| 20260506015016 | 60 | 225 | 0.0 | 2.0 | 0.00 | 0.00 | 0.00 | 84 | 1014.4 |
| 20260506014016 | 60 | 225 | 0.0 | 2.0 | 0.00 | 0.00 | 0.00 | 84 | 1014.4 |
| 20260506013015 | 61 | 225 | 0.0 | 3.0 | 0.00 | 0.00 | 0.00 | 83 | 1014.4 |
| 20260506012056 | 61 | 225 | 1.0 | 5.0 | 0.00 | 0.00 | 0.00 | 83 | 1014.4 |
| 20260506011016 | 61 | 225 | 0.0 | 1.0 | 0.00 | 0.00 | 0.00 | 83 | 1014.4 |
| 20260506010016 | 62 | 225 | 0.0 | 2.0 | 0.00 | 0.00 | 0.00 | 83 | 1014.4 |
| 20260506005021 | 62 | 225 | 0.0 | 1.0 | 0.00 | 0.00 | 0.00 | 84 | 1014.4 |
| 20260506004036 | 62 | 225 | 1.0 | 5.0 | 0.00 | 0.00 | 0.00 | 84 | 1014.4 |
| 20260506003015 | 62 | 203 | 1.0 | 4.0 | 0.00 | 0.00 | 0.00 | 82 | 1014.4 |
| 20260506002015 | 62 | 203 | 1.0 | 4.0 | 0.00 | 0.00 | 0.00 | 82 | 1014.4 |
| 20260506001015 | 62 | 203 | 1.0 | 4.0 | 0.00 | 0.00 | 0.00 | 83 | 1014.6 |
| 20260506000015 | 62 | 203 | 0.0 | 3.0 | 0.00 | 0.00 | 0.00 | 83 | 1014.6 |
| 20260505235017 | 62 | 203 | 1.0 | 4.0 | 0.00 | 0.00 | 0.00 | 82 | 1014.9 |
| 20260505234015 | 62 | 203 | 0.0 | 3.0 | 0.00 | 0.00 | 0.00 | 83 | 1014.9 |
| 20260505233017 | 62 | 203 | 0.0 | 3.0 | 0.00 | 0.00 | 0.00 | 82 | 1014.9 |
| 20260505232017 | 63 | 203 | 1.0 | 3.0 | 0.00 | 0.00 | 0.00 | 82 | 1014.9 |
| 20260505231017 | 63 | 203 | 0.0 | 3.0 | 0.00 | 0.00 | 0.00 | 81 | 1015.0 |
| 20260505230017 | 63 | 203 | 1.0 | 4.0 | 0.00 | 0.00 | 0.00 | 82 | 1015.0 |
| 20260505225016 | 63 | 203 | 2.0 | 7.0 | 0.00 | 0.00 | 0.00 | 84 | 1015.1 |
| 20260505224017 | 63 | 203 | 1.0 | 5.0 | 0.00 | 0.00 | 0.00 | 84 | 1015.0 |
| 20260505223037 | 63 | 203 | 1.0 | 7.0 | 0.00 | 0.00 | 0.00 | 84 | 1015.0 |
| 20260505222018 | 63 | 225 | 4.0 | 8.0 | 0.00 | 0.00 | 0.00 | 83 | 1015.1 |
| 20260505221017 | 64 | 225 | 0.0 | 4.0 | 0.00 | 0.00 | 0.00 | 82 | 1015.3 |
| 20260505220058 | 64 | 225 | 1.0 | 4.0 | 0.00 | 0.00 | 0.00 | 84 | 1015.3 |
| 20260505215017 | 63 | 225 | 1.0 | 4.0 | 0.00 | 0.00 | 0.00 | 84 | 1015.4 |
| 20260505214017 | 63 | 180 | 1.0 | 7.0 | 0.00 | 0.00 | 0.00 | 84 | 1015.6 |
| 20260505213017 | 62 | 180 | 1.0 | 4.0 | 0.00 | 0.00 | 0.00 | 87 | 1015.6 |
| 20260505212017 | 62 | 180 | 0.0 | 4.0 | 0.00 | 0.00 | 0.00 | 88 | 1015.5 |
| 20260505211017 | 62 | 270 | 0.0 | 5.0 | 0.00 | 0.00 | 0.00 | 88 | 1015.4 |
| 20260505210017 | 61 | 270 | 1.0 | 3.0 | 0.00 | 0.00 | 0.00 | 90 | 1015.4 |
| 20260505205037 | 60 | 270 | 1.0 | 4.0 | 0.00 | 0.00 | 0.00 | 91 | 1015.5 |
| 20260505204017 | 59 | 265 | 0.0 | 0.0 | 0.00 | 0.00 | 0.00 | 93 | 1015.7 |
| 20260505203017 | 58 | 270 | 1.0 | 3.0 | 0.00 | 0.00 | 0.00 | 95 | 1015.7 |
| 20260505202017 | 57 | 270 | 0.0 | 2.0 | 0.00 | 0.00 | 0.00 | 96 | 1015.7 |
| 20260505201017 | 57 | 270 | 1.0 | 3.0 | 0.00 | 0.00 | 0.00 | 96 | 1015.8 |
| 20260505200017 | 57 | 270 | 0.0 | 1.0 | 0.00 | 0.00 | 0.00 | 97 | 1015.8 |
| 20260505195017 | 56 | 270 | 0.0 | 1.0 | 0.00 | 0.00 | 0.00 | 98 | 1015.8 |
| 20260505194037 | 56 | 265 | 0.0 | 0.0 | 0.00 | 0.00 | 0.00 | 98 | 1015.8 |
| 20260505193016 | 56 | 270 | 0.0 | 2.0 | 0.00 | 0.00 | 0.00 | 98 | 1015.8 |
| 20260505192017 | 55 | 270 | 0.0 | 3.0 | 0.00 | 0.00 | 0.00 | 99 | 1015.7 |
| 20260505191017 | 55 | 270 | 0.0 | 1.0 | 0.00 | 0.00 | 0.00 | 99 | 1015.7 |
| 20260505190036 | 55 | 270 | 1.0 | 3.0 | 0.00 | 0.00 | 0.00 | 99 | 1015.7 |
| 20260505185016 | 55 | 265 | 0.0 | 0.0 | 0.00 | 0.00 | 0.00 | 99 | 1015.8 |
| 20260505184017 | 55 | 270 | 0.0 | 1.0 | 0.00 | 0.00 | 0.00 | 99 | 1015.7 |
| 20260505183016 | 55 | 270 | 0.0 | 4.0 | 0.00 | 0.00 | 0.00 | 99 | 1015.7 |
| 20260505182016 | 56 | 270 | 0.0 | 2.0 | 0.00 | 0.00 | 0.00 | 99 | 1015.6 |
| 20260505181016 | 56 | 265 | 0.0 | 0.0 | 0.00 | 0.00 | 0.00 | 100 | 1015.3 |
| 20260505180036 | 55 | 265 | 0.0 | 0.0 | 0.00 | 0.00 | 0.00 | 100 | 1015.3 |
| 20260505175037 | 55 | 270 | 0.0 | 1.0 | 0.00 | 0.00 | 0.00 | 100 | 1015.3 |
| 20260505174016 | 55 | 270 | 0.0 | 3.0 | 0.00 | 0.00 | 0.00 | 100 | 1015.2 |
| 20260505173016 | 55 | 270 | 0.0 | 2.0 | 0.00 | 0.00 | 0.00 | 100 | 1015.2 |
| 20260505172016 | 54 | 265 | 0.0 | 0.0 | 0.00 | 0.00 | 0.00 | 100 | 1015.3 |
| 20260505171016 | 54 | 265 | 0.0 | 0.0 | 0.00 | 0.00 | 0.00 | 100 | 1015.3 |
| 20260505170016 | 54 | 270 | 0.0 | 2.0 | 0.00 | 0.00 | 0.00 | 100 | 1015.3 |
| 20260505165056 | 54 | 270 | 0.0 | 1.0 | 0.00 | 0.00 | 0.00 | 100 | 1015.3 |
| 20260505164036 | 54 | 265 | 0.0 | 0.0 | 0.00 | 0.00 | 0.00 | 100 | 1015.2 |
| 20260505163016 | 54 | 265 | 0.0 | 0.0 | 0.00 | 0.00 | 0.00 | 100 | 1015.2 |
| 20260505162036 | 54 | 265 | 0.0 | 0.0 | 0.00 | 0.00 | 0.00 | 100 | 1015.1 |
| 20260505161016 | 53 | 265 | 0.0 | 0.0 | 0.00 | 0.00 | 0.00 | 100 | 1015.0 |
| 20260505153016 | 53 | 265 | 0.0 | 0.0 | 0.00 | 0.00 | 0.00 | 100 | 1014.9 |
| 20260505152016 | 53 | 265 | 0.0 | 0.0 | 0.00 | 0.00 | 0.00 | 100 | 1014.8 |
| 20260505151016 | 53 | 265 | 0.0 | 0.0 | 0.00 | 0.00 | 0.00 | 100 | 1014.6 |
| 20260505125016 | 51 | 265 | 0.0 | 0.0 | 0.00 | 0.00 | 0.00 | 100 | 1013.4 |
| 20260505124016 | 51 | 265 | 0.0 | 0.0 | 0.00 | 0.00 | 0.00 | 100 | 1013.3 |
| 20260505123036 | 50 | 252 | 0.0 | 0.0 | 0.00 | 0.00 | 0.00 | 100 | 1013.3 |
| 20260505122016 | 50 | 252 | 0.0 | 0.0 | 0.00 | 0.00 | 0.00 | 100 | 1013.3 |
| 20260505121016 | 50 | 252 | 0.0 | 0.0 | 0.00 | 0.00 | 0.00 | 100 | 1013.0 |
| 20260505120016 | 50 | 252 | 0.0 | 0.0 | 0.00 | 0.00 | 0.00 | 100 | 1013.0 |
| 20260505115015 | 49 | 252 | 0.0 | 0.0 | 0.00 | 0.00 | 0.00 | 100 | 1012.8 |
| 20260505114015 | 49 | 252 | 0.0 | 0.0 | 0.00 | 0.00 | 0.00 | 100 | 1012.7 |
| 20260505113015 | 49 | 252 | 0.0 | 0.0 | 0.00 | 0.00 | 0.00 | 100 | 1012.7 |
| 20260505112036 | 49 | 252 | 0.0 | 0.0 | 0.00 | 0.00 | 0.00 | 100 | 1012.6 |
| 20260505111015 | 48 | 252 | 0.0 | 0.0 | 0.00 | 0.00 | 0.00 | 100 | 1012.4 |
| 20260505102015 | 48 | 252 | 0.0 | 0.0 | 0.00 | 0.00 | 0.00 | 100 | 1012.2 |
| 20260505101016 | 48 | 252 | 0.0 | 0.0 | 0.00 | 0.00 | 0.00 | 100 | 1012.2 |
| 20260505100016 | 48 | 252 | 0.0 | 0.0 | 0.00 | 0.00 | 0.00 | 100 | 1012.2 |
| 20260505095055 | 48 | 252 | 0.0 | 0.0 | 0.00 | 0.00 | 0.00 | 100 | 1012.2 |
| 20260505094015 | 48 | 252 | 0.0 | 0.0 | 0.00 | 0.00 | 0.00 | 100 | 1012.1 |
| 20260505093035 | 48 | 252 | 0.0 | 0.0 | 0.00 | 0.00 | 0.00 | 100 | 1012.1 |
| 20260505092055 | 48 | 252 | 0.0 | 0.0 | 0.00 | 0.00 | 0.00 | 100 | 1012.0 |
| 20260505091035 | 48 | 252 | 0.0 | 0.0 | 0.00 | 0.00 | 0.00 | 100 | 1011.9 |
| 20260505090015 | 48 | 252 | 0.0 | 0.0 | 0.00 | 0.00 | 0.00 | 100 | 1011.9 |
| 20260505085017 | 48 | 252 | 0.0 | 0.0 | 0.00 | 0.00 | 0.00 | 100 | 1011.7 |
| 20260505084037 | 49 | 252 | 0.0 | 0.0 | 0.00 | 0.00 | 0.00 | 100 | 1011.6 |
| 20260505083017 | 49 | 252 | 0.0 | 0.0 | 0.00 | 0.00 | 0.00 | 100 | 1011.6 |
| 20260505082037 | 49 | 252 | 0.0 | 0.0 | 0.00 | 0.00 | 0.00 | 100 | 1011.6 |
| 20260505081017 | 49 | 252 | 0.0 | 0.0 | 0.00 | 0.00 | 0.00 | 100 | 1011.5 |
| 20260505080017 | 49 | 252 | 0.0 | 0.0 | 0.00 | 0.00 | 0.00 | 100 | 1011.6 |
| 20260505075016 | 50 | 252 | 0.0 | 0.0 | 0.00 | 0.00 | 0.00 | 100 | 1011.4 |
| 20260505074017 | 50 | 252 | 0.0 | 0.0 | 0.00 | 0.00 | 0.00 | 100 | 1011.2 |
| 20260505073017 | 50 | 252 | 0.0 | 0.0 | 0.00 | 0.00 | 0.00 | 100 | 1011.2 |
| 20260505072037 | 50 | 252 | 0.0 | 0.0 | 0.00 | 0.00 | 0.00 | 99 | 1011.2 |
| 20260505071017 | 51 | 252 | 0.0 | 0.0 | 0.00 | 0.00 | 0.00 | 98 | 1010.8 |
| 20260505070017 | 51 | 252 | 0.0 | 0.0 | 0.00 | 0.00 | 0.00 | 98 | 1010.9 |
| 20260505065036 | 51 | 252 | 0.0 | 0.0 | 0.00 | 0.00 | 0.00 | 98 | 1010.7 |
| 20260505064017 | 52 | 252 | 0.0 | 0.0 | 0.00 | 0.00 | 0.00 | 97 | 1010.7 |
| 20260505063017 | 52 | 252 | 0.0 | 0.0 | 0.00 | 0.00 | 0.00 | 97 | 1010.7 |
| 20260505062016 | 53 | 252 | 0.0 | 0.0 | 0.00 | 0.00 | 0.00 | 96 | 1010.6 |
| 20260505061016 | 53 | 252 | 0.0 | 0.0 | 0.00 | 0.00 | 0.00 | 95 | 1010.4 |
| 20260505060016 | 53 | 252 | 0.0 | 0.0 | 0.00 | 0.00 | 0.00 | 94 | 1010.3 |
| 20260505055016 | 54 | 252 | 0.0 | 0.0 | 0.00 | 0.00 | 0.00 | 93 | 1010.2 |
| 20260505054017 | 54 | 252 | 0.0 | 0.0 | 0.00 | 0.00 | 0.00 | 93 | 1010.2 |
| 20260505053016 | 55 | 252 | 0.0 | 0.0 | 0.00 | 0.00 | 0.00 | 93 | 1010.2 |